| time (UTC) | temp F | wind direction | speed knots | gust knots | rain 1hr in | rain 24hr in | rain mn in | humidity % | barometer mb |
| 20260906201334 | 80 | 337 | 3.5 | 6.1 | 0.00 | 0.01 | 0.01 | 77 | 1012.1 |
| 20260906200832 | 80 | 273 | 3.5 | 7.0 | 0.00 | 0.01 | 0.01 | 77 | 1012.1 |
| 20260906200334 | 80 | 264 | 4.3 | 7.8 | 0.00 | 0.01 | 0.01 | 77 | 1012.1 |
| 20260906195831 | 80 | 339 | 2.6 | 7.8 | 0.00 | 0.01 | 0.01 | 79 | 1012.1 |
| 20260906195333 | 79 | 220 | 2.6 | 7.0 | 0.00 | 0.01 | 0.01 | 78 | 1012.5 |
| 20260906194832 | 80 | 199 | 2.6 | 7.0 | 0.00 | 0.02 | 0.01 | 80 | 1012.1 |
| 20260906193831 | 79 | 277 | 2.6 | 7.0 | 0.00 | 0.03 | 0.01 | 82 | 1012.5 |
| 20260906193331 | 78 | 283 | 1.7 | 7.0 | 0.00 | 0.04 | 0.01 | 81 | 1012.1 |
| 20260906192329 | 79 | 266 | 0.0 | 5.2 | 0.00 | 0.04 | 0.01 | 80 | 1012.1 |
| 20260906191328 | 78 | 300 | 4.3 | 6.1 | 0.00 | 0.04 | 0.01 | 83 | 1012.5 |
| 20260906190828 | 78 | 297 | 2.6 | 6.1 | 0.00 | 0.04 | 0.01 | 83 | 1012.8 |
| 20260906190330 | 78 | 265 | 1.7 | 6.1 | 0.00 | 0.04 | 0.01 | 82 | 1012.8 |
| 20260906185828 | 78 | 265 | 3.5 | 6.1 | 0.00 | 0.04 | 0.01 | 82 | 1012.8 |
| 20260906184828 | 79 | 86 | 0.0 | 5.2 | 0.00 | 0.04 | 0.01 | 81 | 1012.8 |
| 20260906184328 | 79 | 285 | 0.0 | 4.3 | 0.00 | 0.04 | 0.01 | 84 | 1012.8 |
| 20260906183828 | 78 | 330 | 2.6 | 4.3 | 0.00 | 0.04 | 0.01 | 83 | 1012.8 |
| 20260906182827 | 77 | 273 | 3.5 | 6.1 | 0.00 | 0.04 | 0.01 | 85 | 1012.8 |
| 20260906182327 | 78 | 257 | 1.7 | 6.1 | 0.00 | 0.04 | 0.01 | 85 | 1012.8 |
| 20260906181826 | 77 | 261 | 2.6 | 8.7 | 0.00 | 0.04 | 0.01 | 85 | 1013.2 |
| 20260906181326 | 77 | 334 | 1.7 | 8.7 | 0.00 | 0.04 | 0.01 | 85 | 1012.8 |
| 20260906180827 | 77 | 304 | 0.0 | 5.2 | 0.00 | 0.04 | 0.01 | 86 | 1013.2 |
| 20260906180325 | 77 | 342 | 3.5 | 5.2 | 0.00 | 0.04 | 0.01 | 86 | 1013.2 |
| 20260906175825 | 77 | 288 | 0.0 | 5.2 | 0.00 | 0.04 | 0.01 | 85 | 1012.8 |
| 20260906175326 | 77 | 312 | 1.7 | 6.1 | 0.00 | 0.04 | 0.01 | 85 | 1013.2 |
| 20260906174824 | 76 | 336 | 1.7 | 6.1 | 0.00 | 0.04 | 0.01 | 85 | 1013.2 |
| 20260906174324 | 76 | 117 | 0.9 | 5.2 | 0.00 | 0.04 | 0.01 | 85 | 1013.5 |
| 20260906173823 | 77 | 356 | 0.0 | 7.8 | 0.00 | 0.04 | 0.01 | 86 | 1013.5 |
| 20260906173325 | 76 | 279 | 0.0 | 7.8 | 0.00 | 0.04 | 0.01 | 87 | 1013.5 |
| 20260906172823 | 75 | 315 | 1.7 | 7.0 | 0.00 | 0.04 | 0.01 | 87 | 1013.9 |
| 20260906172325 | 75 | 285 | 2.6 | 6.1 | 0.00 | 0.04 | 0.01 | 87 | 1013.9 |
| 20260906171823 | 75 | 270 | 0.0 | 7.0 | 0.00 | 0.04 | 0.01 | 89 | 1014.3 |
| 20260906171323 | 75 | 287 | 2.6 | 4.3 | 0.00 | 0.04 | 0.01 | 87 | 1013.9 |
| 20260906170822 | 74 | 260 | 1.7 | 6.1 | 0.00 | 0.04 | 0.01 | 90 | 1014.3 |
| 20260906170323 | 74 | 257 | 1.7 | 6.1 | 0.00 | 0.04 | 0.01 | 90 | 1014.3 |
| 20260906164821 | 74 | 290 | 3.5 | 5.2 | 0.00 | 0.04 | 0.01 | 90 | 1014.3 |
| 20260906164320 | 74 | 297 | 1.7 | 5.2 | 0.00 | 0.04 | 0.01 | 90 | 1014.3 |
| 20260906163820 | 73 | 270 | 1.7 | 5.2 | 0.00 | 0.04 | 0.01 | 90 | 1014.3 |
| 20260906163322 | 73 | 263 | 1.7 | 5.2 | 0.00 | 0.04 | 0.01 | 90 | 1014.3 |
| 20260906162320 | 72 | 23 | 0.9 | 5.2 | 0.00 | 0.04 | 0.01 | 91 | 1014.6 |
| 20260906161819 | 72 | 276 | 4.3 | 5.2 | 0.00 | 0.04 | 0.01 | 91 | 1014.3 |
| 20260906161320 | 72 | 341 | 3.5 | 6.1 | 0.00 | 0.04 | 0.01 | 92 | 1014.6 |
| 20260906160318 | 71 | 294 | 2.6 | 6.1 | 0.00 | 0.04 | 0.01 | 92 | 1014.3 |
| 20260906155817 | 72 | 5 | 0.0 | 6.1 | 0.00 | 0.04 | 0.01 | 93 | 1014.3 |
| 20260906155319 | 72 | 270 | 0.0 | 5.2 | 0.00 | 0.04 | 0.01 | 93 | 1014.3 |
| 20260906154817 | 71 | 285 | 0.0 | 5.2 | 0.00 | 0.04 | 0.01 | 94 | 1014.6 |
| 20260906154318 | 71 | 352 | 3.5 | 5.2 | 0.00 | 0.04 | 0.01 | 93 | 1014.3 |
| 20260906153816 | 71 | 298 | 2.6 | 4.3 | 0.00 | 0.04 | 0.01 | 93 | 1014.6 |
| 20260906153317 | 72 | 285 | 1.7 | 5.2 | 0.00 | 0.04 | 0.01 | 92 | 1014.3 |
| 20260906152816 | 72 | 337 | 1.7 | 5.2 | 0.00 | 0.04 | 0.01 | 92 | 1013.9 |
| 20260906151815 | 71 | 240 | 2.6 | 3.5 | 0.00 | 0.04 | 0.01 | 92 | 1014.3 |
| 20260906151316 | 71 | 265 | 3.5 | 4.3 | 0.00 | 0.04 | 0.01 | 93 | 1014.3 |
| 20260906150815 | 71 | 274 | 2.6 | 4.3 | 0.00 | 0.04 | 0.01 | 93 | 1014.3 |
| 20260906150314 | 71 | 337 | 0.9 | 3.5 | 0.00 | 0.04 | 0.01 | 93 | 1014.3 |
| 20260906144816 | 71 | 353 | 0.9 | 3.5 | 0.00 | 0.04 | 0.01 | 95 | 1014.3 |
| 20260906144313 | 70 | 339 | 2.6 | 3.5 | 0.00 | 0.04 | 0.01 | 96 | 1014.3 |
| 20260906143815 | 69 | 311 | 1.7 | 3.5 | 0.00 | 0.04 | 0.01 | 96 | 1014.6 |
| 20260906143312 | 69 | 300 | 2.6 | 3.5 | 0.00 | 0.04 | 0.01 | 97 | 1014.3 |
| 20260906142812 | 69 | 336 | 1.7 | 3.5 | 0.00 | 0.04 | 0.01 | 97 | 1014.3 |
| 20260906142312 | 69 | 286 | 1.7 | 3.5 | 0.00 | 0.04 | 0.01 | 97 | 1014.6 |
| 20260906141811 | 69 | 342 | 1.7 | 5.2 | 0.00 | 0.04 | 0.01 | 98 | 1014.6 |
| 20260906141311 | 68 | 326 | 1.7 | 5.2 | 0.00 | 0.04 | 0.01 | 98 | 1014.3 |
| 20260906140812 | 68 | 306 | 0.9 | 4.3 | 0.00 | 0.04 | 0.01 | 98 | 1014.3 |
| 20260906140310 | 68 | 253 | 3.5 | 3.5 | 0.00 | 0.04 | 0.01 | 98 | 1014.3 |
| 20260906135811 | 68 | 312 | 1.7 | 3.5 | 0.00 | 0.04 | 0.01 | 99 | 1014.3 |
| 20260906135312 | 67 | 288 | 1.7 | 3.5 | 0.00 | 0.04 | 0.01 | 99 | 1014.3 |
| 20260906133302 | 67 | 266 | 1.7 | 1.7 | 0.00 | 0.04 | 0.01 | 99 | 1014.3 |
| 20260906132801 | 67 | 337 | 0.9 | 4.3 | 0.00 | 0.04 | 0.01 | 99 | 1014.6 |
| 20260906132300 | 66 | 243 | 1.7 | 4.3 | 0.00 | 0.04 | 0.01 | 99 | 1014.3 |
| 20260906131801 | 66 | 327 | 0.0 | 3.5 | 0.00 | 0.04 | 0.01 | 99 | 1014.3 |
| 20260906131301 | 66 | 265 | 1.7 | 3.5 | 0.00 | 0.04 | 0.01 | 99 | 1014.3 |
| 20260906130802 | 66 | 279 | 0.0 | 3.5 | 0.00 | 0.04 | 0.01 | 99 | 1014.3 |
| 20260906125803 | 65 | 291 | 3.5 | 4.3 | 0.01 | 0.04 | 0.01 | 99 | 1014.3 |
| 20260906125300 | 65 | 327 | 1.7 | 2.6 | 0.01 | 0.04 | 0.01 | 99 | 1014.3 |
| 20260906124802 | 65 | 0 | 0.9 | 2.6 | 0.01 | 0.04 | 0.01 | 99 | 1014.3 |
| 20260906124302 | 65 | 294 | 0.9 | 2.6 | 0.01 | 0.04 | 0.01 | 99 | 1013.9 |
| 20260906123801 | 65 | 8 | 0.0 | 3.5 | 0.01 | 0.04 | 0.01 | 99 | 1014.3 |
| 20260906123302 | 65 | 352 | 0.0 | 3.5 | 0.01 | 0.04 | 0.01 | 99 | 1014.3 |
| 20260906122801 | 65 | 246 | 1.7 | 1.7 | 0.01 | 0.04 | 0.01 | 99 | 1014.3 |
| 20260906122305 | 65 | 23 | 0.0 | 1.7 | 0.01 | 0.04 | 0.01 | 99 | 1014.3 |
| 20260906121801 | 64 | 66 | 0.0 | 1.7 | 0.01 | 0.04 | 0.01 | 99 | 1014.3 |
| 20260906121301 | 65 | 255 | 0.9 | 1.7 | 0.01 | 0.04 | 0.01 | 99 | 1014.3 |
| 20260906120801 | 65 | 102 | 0.0 | 1.7 | 0.01 | 0.04 | 0.01 | 99 | 1014.3 |
| 20260906120301 | 65 | 270 | 0.0 | 2.6 | 0.00 | 0.03 | 0.00 | 99 | 1013.5 |
| 20260906115802 | 64 | 311 | 1.7 | 2.6 | 0.00 | 0.03 | 0.00 | 99 | 1013.5 |
| 20260906115301 | 65 | 291 | 0.9 | 2.6 | 0.00 | 0.03 | 0.00 | 99 | 1014.3 |
| 20260906114803 | 65 | 0 | 0.0 | 1.7 | 0.00 | 0.03 | 0.00 | 99 | 1013.9 |
| 20260906114301 | 64 | 0 | 0.0 | 1.7 | 0.00 | 0.03 | 0.00 | 99 | 1013.9 |
| 20260906113801 | 64 | 0 | 0.0 | 2.6 | 0.00 | 0.03 | 0.00 | 99 | 1014.3 |
| 20260906112801 | 64 | 311 | 1.7 | 1.7 | 0.00 | 0.03 | 0.00 | 99 | 1014.3 |
| 20260906112306 | 64 | 270 | 0.0 | 3.5 | 0.00 | 0.03 | 0.00 | 99 | 1014.3 |
| 20260906111302 | 65 | 81 | 0.0 | 2.6 | 0.00 | 0.03 | 0.00 | 99 | 1014.3 |
| 20260906110801 | 64 | 0 | 0.0 | 2.6 | 0.00 | 0.03 | 0.00 | 99 | 1014.3 |
| 20260906110301 | 64 | 71 | 0.0 | 2.6 | 0.00 | 0.03 | 0.00 | 99 | 1014.3 |
| 20260906105800 | 64 | 270 | 0.0 | 1.7 | 0.00 | 0.03 | 0.00 | 99 | 1013.9 |
| 20260906104759 | 64 | 306 | 0.9 | 5.2 | 0.00 | 0.03 | 0.00 | 99 | 1013.2 |
| 20260906104258 | 64 | 300 | 0.9 | 4.3 | 0.00 | 0.03 | 0.00 | 99 | 1013.5 |
| 20260906103758 | 65 | 279 | 0.0 | 2.6 | 0.00 | 0.03 | 0.00 | 99 | 1014.3 |
| 20260906103258 | 64 | 5 | 0.0 | 2.6 | 0.00 | 0.03 | 0.00 | 99 | 1014.3 |
| 20260906102759 | 64 | 345 | 0.0 | 2.6 | 0.00 | 0.03 | 0.00 | 99 | 1014.3 |
| 20260906102257 | 64 | 354 | 0.9 | 2.6 | 0.00 | 0.03 | 0.00 | 99 | 1013.9 |
| 20260906101757 | 64 | 90 | 0.0 | 1.7 | 0.00 | 0.03 | 0.00 | 99 | 1014.3 |
| 20260906100756 | 64 | 133 | 2.6 | 4.3 | 0.00 | 0.03 | 0.00 | 99 | 1012.8 |
| 20260906100258 | 64 | 292 | 1.7 | 4.3 | 0.00 | 0.03 | 0.00 | 99 | 1012.8 |
| 20260906095756 | 64 | 337 | 0.9 | 1.7 | 0.00 | 0.03 | 0.00 | 99 | 1013.5 |
| 20260906094256 | 64 | 301 | 0.0 | 1.7 | 0.00 | 0.03 | 0.00 | 99 | 1013.5 |
| 20260906093754 | 64 | 254 | 0.0 | 5.2 | 0.00 | 0.03 | 0.00 | 99 | 1013.2 |
| 20260906093256 | 64 | 289 | 1.7 | 5.2 | 0.00 | 0.03 | 0.00 | 99 | 1013.2 |
| 20260906092754 | 64 | 300 | 0.9 | 5.2 | 0.00 | 0.03 | 0.00 | 99 | 1012.8 |
| 20260906091754 | 64 | 291 | 0.0 | 1.7 | 0.00 | 0.03 | 0.00 | 99 | 1012.8 |
| 20260906091254 | 64 | 270 | 0.0 | 3.5 | 0.00 | 0.03 | 0.00 | 99 | 1013.2 |
| 20260906090753 | 64 | 81 | 0.0 | 3.5 | 0.00 | 0.03 | 0.00 | 99 | 1013.2 |
| 20260906090253 | 64 | 258 | 1.7 | 2.6 | 0.00 | 0.03 | 0.00 | 99 | 1012.8 |
| 20260906085753 | 64 | 11 | 0.0 | 5.2 | 0.00 | 0.03 | 0.00 | 99 | 1012.8 |
| 20260906085252 | 64 | 306 | 0.9 | 5.2 | 0.00 | 0.03 | 0.00 | 99 | 1012.5 |
| 20260906084253 | 64 | 270 | 0.0 | 6.1 | 0.00 | 0.03 | 0.00 | 99 | 1012.8 |
| 20260906083751 | 64 | 290 | 1.7 | 2.6 | 0.00 | 0.03 | 0.00 | 99 | 1012.8 |
| 20260906083253 | 64 | 294 | 0.9 | 3.5 | 0.00 | 0.03 | 0.00 | 99 | 1012.8 |
| 20260906082750 | 64 | 285 | 1.7 | 5.2 | 0.00 | 0.03 | 0.00 | 99 | 1013.2 |
| 20260906081750 | 64 | 270 | 1.7 | 4.3 | 0.00 | 0.03 | 0.00 | 99 | 1013.2 |
| 20260906081251 | 64 | 320 | 1.7 | 3.5 | 0.00 | 0.03 | 0.00 | 99 | 1013.2 |
| 20260906080249 | 64 | 348 | 0.9 | 1.7 | 0.00 | 0.03 | 0.00 | 99 | 1013.5 |
| 20260906075749 | 64 | 289 | 0.0 | 2.6 | 0.00 | 0.03 | 0.00 | 99 | 1013.5 |
| 20260906075248 | 64 | 0 | 0.0 | 2.6 | 0.00 | 0.03 | 0.00 | 99 | 1013.9 |
| 20260906074749 | 64 | 279 | 0.0 | 1.7 | 0.00 | 0.03 | 0.00 | 99 | 1013.5 |
| 20260906074248 | 64 | 270 | 0.0 | 1.7 | 0.00 | 0.03 | 0.00 | 99 | 1013.5 |
| 20260906073748 | 64 | 289 | 0.9 | 1.7 | 0.00 | 0.03 | 0.00 | 99 | 1013.5 |
| 20260906072747 | 64 | 90 | 0.9 | 1.7 | 0.00 | 0.03 | 0.00 | 99 | 1013.5 |
| 20260906072248 | 64 | 0 | 0.0 | 2.6 | 0.00 | 0.03 | 0.00 | 99 | 1013.5 |
| 20260906071747 | 64 | 279 | 0.0 | 2.6 | 0.00 | 0.03 | 0.00 | 99 | 1013.5 |
| 20260906071246 | 64 | 300 | 0.0 | 0.9 | 0.00 | 0.03 | 0.00 | 99 | 1013.5 |
| 20260906070746 | 64 | 285 | 0.0 | 4.3 | 0.00 | 0.03 | 0.00 | 99 | 1013.5 |
| 20260906070247 | 64 | 270 | 0.0 | 4.3 | 0.00 | 0.03 | 0.00 | 99 | 1013.9 |
| 20260906065745 | 64 | 289 | 0.9 | 2.6 | 0.00 | 0.03 | 0.00 | 99 | 1013.9 |
| 20260906065246 | 64 | 289 | 0.0 | 1.7 | 0.00 | 0.03 | 0.00 | 99 | 1013.5 |
| 20260906064745 | 64 | 0 | 0.0 | 1.7 | 0.00 | 0.03 | 0.00 | 99 | 1013.9 |
| 20260906064244 | 64 | 350 | 0.0 | 1.7 | 0.00 | 0.03 | 0.00 | 99 | 1013.9 |
| 20260906063744 | 65 | 282 | 0.0 | 1.7 | 0.00 | 0.03 | 0.00 | 99 | 1013.9 |
| 20260906063244 | 64 | 340 | 0.0 | 1.7 | 0.00 | 0.03 | 0.00 | 99 | 1013.9 |
| 20260906062745 | 64 | 345 | 0.0 | 1.7 | 0.00 | 0.03 | 0.00 | 99 | 1014.3 |
| 20260906062243 | 65 | 270 | 0.0 | 1.7 | 0.00 | 0.03 | 0.00 | 99 | 1013.9 |
| 20260906061743 | 65 | 285 | 0.0 | 4.3 | 0.00 | 0.03 | 0.00 | 99 | 1013.9 |
| 20260906060742 | 65 | 291 | 0.9 | 3.5 | 0.00 | 0.03 | 0.00 | 99 | 1013.9 |
| 20260906060242 | 65 | 276 | 0.0 | 2.6 | 0.00 | 0.03 | 0.00 | 99 | 1013.9 |
| 20260906055742 | 65 | 263 | 0.0 | 2.6 | 0.00 | 0.03 | 0.00 | 99 | 1013.9 |
| 20260906055241 | 65 | 254 | 0.9 | 2.6 | 0.00 | 0.03 | 0.00 | 99 | 1014.3 |
| 20260906054241 | 65 | 0 | 0.9 | 6.1 | 0.00 | 0.03 | 0.00 | 99 | 1013.9 |
| 20260906053742 | 65 | 286 | 1.7 | 6.1 | 0.00 | 0.03 | 0.00 | 99 | 1013.9 |
| 20260906053240 | 65 | 303 | 1.7 | 2.6 | 0.00 | 0.03 | 0.00 | 99 | 1013.5 |
| 20260906052741 | 65 | 354 | 0.0 | 2.6 | 0.00 | 0.03 | 0.00 | 99 | 1013.9 |
| 20260906052239 | 65 | 258 | 0.0 | 2.6 | 0.00 | 0.03 | 0.00 | 99 | 1013.9 |
| 20260906051741 | 65 | 352 | 1.7 | 2.6 | 0.00 | 0.03 | 0.00 | 99 | 1013.9 |
| 20260906051239 | 65 | 270 | 0.0 | 2.6 | 0.00 | 0.03 | 0.00 | 99 | 1013.9 |
| 20260906050740 | 65 | 297 | 0.0 | 2.6 | 0.00 | 0.03 | 0.00 | 99 | 1014.3 |
| 20260906050238 | 65 | 261 | 0.0 | 2.6 | 0.00 | 0.03 | 0.00 | 99 | 1014.3 |
| 20260906045738 | 65 | 278 | 0.9 | 1.7 | 0.00 | 0.03 | 0.03 | 99 | 1013.9 |
| 20260906044737 | 65 | 287 | 0.0 | 2.6 | 0.00 | 0.03 | 0.03 | 99 | 1013.5 |
| 20260906044238 | 65 | 297 | 0.9 | 2.6 | 0.00 | 0.03 | 0.03 | 99 | 1014.3 |
| 20260906043736 | 65 | 325 | 0.0 | 0.9 | 0.00 | 0.03 | 0.03 | 99 | 1014.3 |
| 20260906042736 | 65 | 286 | 0.0 | 2.6 | 0.00 | 0.03 | 0.03 | 99 | 1014.3 |
| 20260906042237 | 64 | 278 | 0.0 | 1.7 | 0.00 | 0.03 | 0.03 | 99 | 1014.3 |
| 20260906041735 | 65 | 294 | 0.0 | 1.7 | 0.00 | 0.03 | 0.03 | 99 | 1014.3 |
| 20260906041237 | 64 | 292 | 0.0 | 1.7 | 0.00 | 0.03 | 0.03 | 99 | 1014.3 |
| 20260906040735 | 64 | 270 | 0.0 | 2.6 | 0.00 | 0.03 | 0.03 | 99 | 1014.3 |
| 20260906040236 | 65 | 270 | 0.0 | 2.6 | 0.00 | 0.03 | 0.03 | 99 | 1014.3 |
| 20260906035234 | 64 | 265 | 0.0 | 1.7 | 0.00 | 0.03 | 0.03 | 99 | 1014.3 |
| 20260906034733 | 64 | 355 | 0.0 | 1.7 | 0.00 | 0.03 | 0.03 | 99 | 1013.9 |
| 20260906033733 | 64 | 302 | 0.0 | 1.7 | 0.00 | 0.03 | 0.03 | 99 | 1014.3 |
| 20260906033234 | 64 | 346 | 0.0 | 0.9 | 0.00 | 0.03 | 0.03 | 99 | 1013.9 |
| 20260906032733 | 64 | 300 | 0.0 | 0.9 | 0.00 | 0.03 | 0.03 | 99 | 1013.9 |
| 20260906032232 | 64 | 294 | 0.0 | 0.9 | 0.00 | 0.03 | 0.03 | 99 | 1014.3 |
| 20260906031732 | 64 | 261 | 0.0 | 1.7 | 0.00 | 0.03 | 0.03 | 99 | 1013.9 |
| 20260906031233 | 64 | 279 | 0.0 | 1.7 | 0.00 | 0.03 | 0.03 | 99 | 1013.9 |
| 20260906030731 | 64 | 270 | 0.0 | 1.7 | 0.00 | 0.03 | 0.03 | 99 | 1013.9 |
| 20260906030232 | 64 | 279 | 0.0 | 0.9 | 0.00 | 0.03 | 0.03 | 99 | 1013.5 |
| 20260906025731 | 64 | 354 | 0.0 | 0.9 | 0.00 | 0.03 | 0.03 | 99 | 1013.9 |
| 20260906025230 | 64 | 261 | 0.0 | 0.0 | 0.00 | 0.03 | 0.03 | 99 | 1013.5 |
| 20260906024730 | 64 | 294 | 0.0 | 1.7 | 0.00 | 0.03 | 0.03 | 99 | 1013.9 |
| 20260906024231 | 64 | 294 | 0.0 | 1.7 | 0.00 | 0.03 | 0.03 | 99 | 1013.9 |
| 20260906023729 | 65 | 264 | 0.0 | 1.7 | 0.00 | 0.03 | 0.03 | 99 | 1013.9 |
| 20260906023229 | 65 | 278 | 0.0 | 1.7 | 0.00 | 0.03 | 0.03 | 99 | 1013.9 |
| 20260906022729 | 65 | 354 | 0.0 | 1.7 | 0.00 | 0.03 | 0.03 | 99 | 1013.5 |
| 20260906021730 | 65 | 279 | 0.0 | 2.6 | 0.00 | 0.03 | 0.03 | 99 | 1013.5 |
| 20260906021228 | 65 | 259 | 0.0 | 1.7 | 0.00 | 0.03 | 0.03 | 99 | 1013.9 |
| 20260906020729 | 65 | 279 | 0.0 | 1.7 | 0.00 | 0.03 | 0.03 | 99 | 1013.5 |
| 20260906020227 | 65 | 287 | 0.0 | 1.7 | 0.00 | 0.03 | 0.03 | 99 | 1014.3 |
| 20260906015728 | 65 | 262 | 0.0 | 1.7 | 0.00 | 0.03 | 0.03 | 99 | 1013.5 |
| 20260906014728 | 65 | 255 | 0.0 | 1.7 | 0.00 | 0.03 | 0.03 | 98 | 1013.5 |
| 20260906014226 | 65 | 282 | 0.0 | 1.7 | 0.00 | 0.03 | 0.03 | 97 | 1013.5 |
| 20260906013728 | 65 | 263 | 0.0 | 1.7 | 0.00 | 0.03 | 0.03 | 97 | 1013.5 |
| 20260906013227 | 65 | 251 | 0.0 | 1.7 | 0.00 | 0.03 | 0.03 | 97 | 1013.5 |
| 20260906012202 | 65 | 286 | 0.9 | 2.6 | 0.00 | 0.03 | 0.03 | 97 | 1013.2 |
| 20260906011702 | 66 | 0 | 0.0 | 0.9 | 0.00 | 0.03 | 0.03 | 96 | 1013.5 |
| 20260906011201 | 66 | 270 | 0.0 | 1.7 | 0.00 | 0.03 | 0.03 | 96 | 1013.2 |
| 20260906005703 | 67 | 294 | 0.0 | 2.6 | 0.00 | 0.03 | 0.03 | 95 | 1012.8 |
| 20260906005201 | 67 | 341 | 0.0 | 4.3 | 0.00 | 0.03 | 0.03 | 94 | 1012.5 |
| 20260906004702 | 67 | 35 | 0.0 | 4.3 | 0.00 | 0.03 | 0.03 | 93 | 1012.1 |
| 20260906004201 | 67 | 239 | 1.7 | 4.3 | 0.00 | 0.03 | 0.03 | 94 | 1012.1 |
| 20260906003200 | 68 | 257 | 0.9 | 5.2 | 0.00 | 0.03 | 0.03 | 93 | 1011.8 |
| 20260906002701 | 68 | 341 | 1.7 | 4.3 | 0.00 | 0.03 | 0.03 | 92 | 1011.8 |
| 20260906002201 | 68 | 248 | 1.7 | 6.1 | 0.00 | 0.03 | 0.03 | 92 | 1012.1 |
| 20260906001703 | 69 | 263 | 0.9 | 6.1 | 0.00 | 0.03 | 0.03 | 91 | 1012.1 |
| 20260906001201 | 69 | 245 | 1.7 | 5.2 | 0.00 | 0.03 | 0.03 | 91 | 1012.1 |
| 20260906000702 | 69 | 264 | 0.0 | 4.3 | 0.00 | 0.03 | 0.03 | 91 | 1012.1 |
| 20260906000201 | 69 | 289 | 0.9 | 4.3 | 0.00 | 0.03 | 0.03 | 90 | 1011.8 |
| 20260905235703 | 70 | 312 | 1.7 | 4.3 | 0.00 | 0.03 | 0.03 | 89 | 1011.8 |
| 20260905235202 | 70 | 257 | 0.9 | 4.3 | 0.00 | 0.03 | 0.03 | 88 | 1012.1 |
| 20260905234703 | 71 | 270 | 1.7 | 4.3 | 0.00 | 0.03 | 0.03 | 87 | 1012.1 |
| 20260905234201 | 71 | 260 | 1.7 | 4.3 | 0.00 | 0.03 | 0.03 | 86 | 1011.8 |
| 20260905233702 | 70 | 350 | 2.6 | 5.2 | 0.00 | 0.03 | 0.03 | 87 | 1011.8 |
| 20260905233200 | 70 | 285 | 1.7 | 5.2 | 0.00 | 0.03 | 0.03 | 88 | 1011.5 |
| 20260905232703 | 69 | 255 | 0.9 | 6.1 | 0.00 | 0.03 | 0.03 | 88 | 1011.8 |
| 20260905232201 | 69 | 304 | 1.7 | 6.1 | 0.00 | 0.03 | 0.03 | 88 | 1011.8 |
| 20260905231702 | 70 | 304 | 1.7 | 5.2 | 0.00 | 0.03 | 0.03 | 88 | 1012.1 |
| 20260905231201 | 70 | 295 | 1.7 | 4.3 | 0.00 | 0.03 | 0.03 | 87 | 1012.1 |
| 20260905225703 | 71 | 241 | 2.6 | 5.2 | 0.00 | 0.03 | 0.03 | 86 | 1012.1 |
| 20260905224704 | 71 | 266 | 1.7 | 6.1 | 0.00 | 0.03 | 0.03 | 86 | 1012.1 |
| 20260905224201 | 72 | 356 | 1.7 | 5.2 | 0.00 | 0.03 | 0.03 | 85 | 1011.8 |
| 20260905223201 | 73 | 239 | 0.0 | 5.2 | 0.00 | 0.03 | 0.03 | 85 | 1011.8 |
| 20260905222202 | 72 | 233 | 1.7 | 5.2 | 0.00 | 0.03 | 0.03 | 84 | 1011.8 |
| 20260905221701 | 72 | 340 | 3.5 | 7.0 | 0.00 | 0.03 | 0.03 | 86 | 1011.8 |
| 20260905221202 | 70 | 284 | 4.3 | 7.0 | 0.00 | 0.03 | 0.03 | 87 | 1011.8 |
| 20260905220701 | 70 | 324 | 1.7 | 7.0 | 0.00 | 0.03 | 0.03 | 87 | 1011.8 |
| 20260905220202 | 71 | 270 | 1.7 | 5.2 | 0.00 | 0.03 | 0.03 | 86 | 1011.5 |
| 20260905214701 | 71 | 336 | 1.7 | 7.8 | 0.00 | 0.03 | 0.03 | 85 | 1011.5 |
| 20260905214200 | 72 | 254 | 2.6 | 5.2 | 0.00 | 0.03 | 0.03 | 84 | 1011.5 |
| 20260905213700 | 72 | 351 | 3.5 | 7.8 | 0.00 | 0.03 | 0.03 | 85 | 1011.5 |
| 20260905213203 | 73 | 304 | 1.7 | 7.8 | 0.00 | 0.03 | 0.03 | 84 | 1011.8 |
| 20260905212701 | 73 | 0 | 0.0 | 7.8 | 0.00 | 0.03 | 0.03 | 86 | 1011.8 |
| 20260905212203 | 72 | 296 | 7.8 | 7.8 | 0.00 | 0.03 | 0.03 | 86 | 1011.8 |
| 20260905211701 | 71 | 340 | 0.0 | 7.8 | 0.00 | 0.03 | 0.03 | 89 | 1011.8 |
| 20260905210203 | 70 | 312 | 1.7 | 6.1 | 0.00 | 0.03 | 0.03 | 91 | 1011.8 |
| 20260905205701 | 69 | 300 | 2.6 | 6.1 | 0.00 | 0.03 | 0.03 | 91 | 1012.1 |
| 20260905205203 | 70 | 283 | 1.7 | 7.8 | 0.01 | 0.03 | 0.03 | 90 | 1012.1 |
| 20260905204701 | 71 | 324 | 1.7 | 7.8 | 0.01 | 0.03 | 0.03 | 92 | 1012.1 |
| 20260905204203 | 70 | 344 | 0.0 | 6.1 | 0.01 | 0.03 | 0.03 | 94 | 1012.1 |
| 20260905203701 | 68 | 345 | 1.7 | 7.8 | 0.02 | 0.03 | 0.03 | 96 | 1012.1 |
| 20260905203203 | 67 | 292 | 1.7 | 7.8 | 0.03 | 0.03 | 0.03 | 97 | 1012.5 |
| 20260905202701 | 66 | 270 | 2.6 | 4.3 | 0.03 | 0.03 | 0.03 | 97 | 1012.1 |
| 20260905201700 | 66 | 263 | 0.9 | 5.2 | 0.03 | 0.03 | 0.03 | 99 | 1012.1 |